When you browse on this site, cookies collect data to enhance your experience and personalize the content and advertising you see.
Visit our Privacy Policy to learn more. By continuing to use the site, you agree to this use of cookies and data.
  • In Romania
  • List of Countries
  • For 7 days
  • Water Temperature
  • Satellite Maps
  • Weather Map
  • Weather Widgets
  • user-avatar
    Login

    Hourly Weather Durham

    Today, 21 April, Sunday

    Time Temperature Precipitation Wind Pressure Humidity
    00:00 +12°C° 0 mm 3 mps 764 mmHg 77%
    01:00 +11°C° 0 mm 3 mps 764 mmHg 78%
    02:00 +11°C° 0 mm 3 mps 763 mmHg 79%
    03:00 +11°C° 0 mm 3 mps 762 mmHg 79%
    04:00 +11°C° 0 mm 3 mps 762 mmHg 80%
    05:00 +11°C° 0 mm 3 mps 762 mmHg 81%
    06:00 +11°C° 0 mm 3 mps 761 mmHg 82%
    07:00 +12°C° 0 mm 3 mps 761 mmHg 77%
    08:00 +14°C° 0 mm 3 mps 761 mmHg 73%
    09:00 +17°C° 0 mm 4 mps 760 mmHg 68%
    10:00 +18°C° 0 mm 4 mps 760 mmHg 65%
    11:00 +19°C° 0 mm 4 mps 759 mmHg 62%
    12:00 +20°C° 0 mm 4 mps 759 mmHg 59%
    13:00 +21°C° 0 mm 4 mps 758 mmHg 58%
    14:00 +21°C° 0 mm 4 mps 758 mmHg 57%
    15:00 +21°C° 0 mm 4 mps 757 mmHg 56%
    16:00 +20°C° 0 mm 4 mps 756 mmHg 59%
    17:00 +20°C° 0 mm 4 mps 756 mmHg 63%
    18:00 +19°C° 0 mm 3 mps 756 mmHg 66%
    19:00 +17°C° 0 mm 4 mps 755 mmHg 69%
    20:00 +15°C° 0 mm 4 mps 755 mmHg 73%
    21:00 +13°C° 0 mm 4 mps 755 mmHg 76%
    22:00 +13°C° 0 mm 4 mps 755 mmHg 77%
    23:00 +12°C° 0 mm 4 mps 754 mmHg 78%

    Tomorrow, 22 April, Monday

    Time Temperature Precipitation Wind Pressure Humidity
    00:00 +11°C° 0 mm 4 mps 754 mmHg 79%
    01:00 +11°C° 0 mm 4 mps 754 mmHg 81%
    02:00 +10°C° 0 mm 3 mps 753 mmHg 83%
    03:00 +10°C° 0 mm 3 mps 753 mmHg 85%
    04:00 +10°C° 0 mm 3 mps 752 mmHg 85%
    05:00 +10°C° 0 mm 3 mps 752 mmHg 85%
    06:00 +10°C° 0 mm 3 mps 752 mmHg 85%
    07:00 +11°C° 0 mm 3 mps 751 mmHg 77%
    08:00 +13°C° 0 mm 4 mps 751 mmHg 69%
    09:00 +14°C° 0 mm 4 mps 751 mmHg 62%
    10:00 +15°C° 0 mm 4 mps 751 mmHg 59%
    11:00 +16°C° 0 mm 5 mps 750 mmHg 56%
    12:00 +17°C° 0 mm 5 mps 750 mmHg 54%
    13:00 +19°C° 0 mm 5 mps 750 mmHg 55%
    14:00 +19°C° 0 mm 6 mps 749 mmHg 57%
    15:00 +19°C° 0 mm 6 mps 749 mmHg 59%
    16:00 +17°C° 0 mm 6 mps 749 mmHg 62%
    17:00 +16°C° 0 mm 5 mps 748 mmHg 65%
    18:00 +14°C° 0 mm 5 mps 748 mmHg 68%
    19:00 +13°C° 0 mm 4 mps 748 mmHg 73%
    20:00 +11°C° 0 mm 4 mps 748 mmHg 78%
    21:00 +10°C° 0 mm 3 mps 748 mmHg 83%
    22:00 +9°C° 0 mm 3 mps 748 mmHg 85%
    23:00 +9°C° 0 mm 2 mps 748 mmHg 86%

    Day after tomorrow, 23 April, Tuesday

    Time Temperature Precipitation Wind Pressure Humidity
    00:00 +9°C° 0 mm 2 mps 748 mmHg 88%
    01:00 +9°C° 0 mm 2 mps 747 mmHg 89%
    02:00 +9°C° 0 mm 2 mps 747 mmHg 90%
    03:00 +9°C° 0 mm 2 mps 747 mmHg 91%
    04:00 +9°C° 0 mm 2 mps 747 mmHg 90%
    05:00 +9°C° 0 mm 3 mps 746 mmHg 89%
    06:00 +9°C° 0 mm 3 mps 746 mmHg 88%
    07:00 +10°C° 0 mm 4 mps 746 mmHg 83%
    08:00 +12°C° 0 mm 4 mps 746 mmHg 79%
    09:00 +13°C° 0 mm 5 mps 746 mmHg 74%
    10:00 +13°C° 0 mm 5 mps 746 mmHg 72%
    11:00 +14°C° 0 mm 6 mps 746 mmHg 69%
    12:00 +15°C° 0 mm 6 mps 746 mmHg 67%
    13:00 +14°C° 0 mm 6 mps 746 mmHg 67%
    14:00 +14°C° 0 mm 7 mps 746 mmHg 67%
    15:00 +12°C° 0 mm 7 mps 745 mmHg 67%
    16:00 +13°C° 0 mm 6 mps 745 mmHg 72%
    17:00 +11°C° 0 mm 6 mps 745 mmHg 76%
    18:00 +10°C° 0 mm 5 mps 745 mmHg 81%
    19:00 +9°C° 0 mm 5 mps 745 mmHg 85%
    20:00 +8°C° 0 mm 4 mps 745 mmHg 89%
    21:00 +8°C° 0 mm 3 mps 745 mmHg 93%
    22:00 +8°C° 0 mm 3 mps 745 mmHg 92%
    23:00 +8°C° 0 mm 3 mps 744 mmHg 92%

    24 April, Wednesday

    Time Temperature Precipitation Wind Pressure Humidity
    00:00 +9°C° 0 mm 3 mps 744 mmHg 91%
    01:00 +8°C° 0 mm 4 mps 744 mmHg 91%
    02:00 +8°C° 0 mm 4 mps 743 mmHg 91%
    03:00 +8°C° 0 mm 5 mps 743 mmHg 92%
    04:00 +8°C° 0.1 mm 5 mps 742 mmHg 92%
    05:00 +8°C° 0.1 mm 5 mps 742 mmHg 92%
    06:00 +8°C° 0.1 mm 6 mps 742 mmHg 92%
    07:00 +9°C° 0 mm 6 mps 741 mmHg 91%
    08:00 +9°C° 0 mm 6 mps 741 mmHg 90%
    09:00 +9°C° 0 mm 6 mps 741 mmHg 89%
    10:00 +9°C° 0.1 mm 6 mps 741 mmHg 90%
    11:00 +9°C° 0.1 mm 6 mps 740 mmHg 91%
    12:00 +9°C° 0.1 mm 6 mps 740 mmHg 91%
    13:00 +9°C° 0.9 mm 5 mps 740 mmHg 92%
    14:00 +9°C° 0.9 mm 5 mps 740 mmHg 93%
    15:00 +10°C° 0.9 mm 4 mps 740 mmHg 94%
    16:00 +10°C° 0 mm 4 mps 740 mmHg 90%
    17:00 +9°C° 0 mm 5 mps 741 mmHg 85%
    18:00 +9°C° 0 mm 5 mps 741 mmHg 81%
    19:00 +8°C° 0 mm 4 mps 741 mmHg 82%
    20:00 +8°C° 0 mm 3 mps 741 mmHg 82%
    21:00 +8°C° 0 mm 2 mps 742 mmHg 83%
    22:00 +8°C° 0.1 mm 2 mps 742 mmHg 85%
    23:00 +7°C° 0.1 mm 2 mps 742 mmHg 87%

    25 April, Thursday

    Time Temperature Precipitation Wind Pressure Humidity
    00:00 +7°C° 0.1 mm 3 mps 742 mmHg 89%
    01:00 +7°C° 0 mm 3 mps 742 mmHg 91%
    02:00 +7°C° 0 mm 3 mps 742 mmHg 92%
    03:00 +5°C° 0 mm 3 mps 741 mmHg 94%
    04:00 +6°C° 0 mm 4 mps 741 mmHg 93%
    05:00 +6°C° 0 mm 5 mps 741 mmHg 93%
    06:00 +7°C° 0 mm 6 mps 741 mmHg 92%
    07:00 +8°C° 0.1 mm 6 mps 741 mmHg 86%
    08:00 +9°C° 0.1 mm 7 mps 741 mmHg 81%
    09:00 +10°C° 0.1 mm 7 mps 741 mmHg 76%
    10:00 +11°C° 0 mm 7 mps 741 mmHg 70%
    11:00 +12°C° 0 mm 8 mps 741 mmHg 65%
    12:00 +12°C° 0 mm 8 mps 741 mmHg 60%
    13:00 +12°C° 0.6 mm 8 mps 741 mmHg 62%
    14:00 +12°C° 0.6 mm 8 mps 741 mmHg 64%
    15:00 +11°C° 0.6 mm 8 mps 741 mmHg 66%
    16:00 +11°C° 0.3 mm 7 mps 742 mmHg 68%
    17:00 +10°C° 0.3 mm 6 mps 742 mmHg 71%
    18:00 +10°C° 0.3 mm 5 mps 742 mmHg 73%
    19:00 +9°C° 0 mm 5 mps 743 mmHg 75%
    20:00 +8°C° 0 mm 6 mps 743 mmHg 77%
    21:00 +7°C° 0 mm 6 mps 744 mmHg 79%
    22:00 +5°C° 0 mm 6 mps 744 mmHg 81%
    23:00 +6°C° 0 mm 5 mps 744 mmHg 84%

    26 April, Friday

    Time Temperature Precipitation Wind Pressure Humidity
    00:00 +6°C° 0 mm 5 mps 745 mmHg 86%
    01:00 +5°C° 0 mm 5 mps 745 mmHg 86%
    02:00 +5°C° 0 mm 5 mps 745 mmHg 87%
    03:00 +5°C° 0 mm 5 mps 745 mmHg 87%
    04:00 +5°C° 0 mm 5 mps 746 mmHg 87%
    05:00 +5°C° 0 mm 5 mps 746 mmHg 87%
    06:00 +5°C° 0 mm 5 mps 746 mmHg 87%
    07:00 +5°C° 0 mm 6 mps 747 mmHg 82%
    08:00 +8°C° 0 mm 6 mps 748 mmHg 77%
    09:00 +9°C° 0 mm 7 mps 748 mmHg 72%
    10:00 +9°C° 0.2 mm 7 mps 749 mmHg 69%
    11:00 +9°C° 0.2 mm 7 mps 749 mmHg 67%
    12:00 +10°C° 0.2 mm 8 mps 750 mmHg 64%
    13:00 +10°C° 0 mm 8 mps 750 mmHg 60%
    14:00 +10°C° 0 mm 7 mps 750 mmHg 55%
    15:00 +10°C° 0 mm 7 mps 750 mmHg 51%
    16:00 +10°C° 0 mm 7 mps 750 mmHg 55%
    17:00 +10°C° 0 mm 6 mps 750 mmHg 58%
    18:00 +9°C° 0 mm 5 mps 749 mmHg 62%
    19:00 +9°C° 0.2 mm 7 mps 749 mmHg 69%
    20:00 +7°C° 0.2 mm 8 mps 748 mmHg 75%
    21:00 +6°C° 0.2 mm 9 mps 747 mmHg 81%
    22:00 +6°C° 1 mm 9 mps 747 mmHg 83%
    23:00 +6°C° 1 mm 9 mps 746 mmHg 86%
    Show more